Simultaneous Nadir Overpasses (SNOs) Predictions

Prediction of SNOs between GOES-17 and NOAA-20 Satellite Orbit:

Table of predicted SNOs for the next 14.0 days since TLE Epoch: 2/17/2024
Index Date Time (GOES-17) GOES-17 Lat,Lon NOAA-20 Lat,Lon Distance(km) Time Diff (sec)
1 02/18/2024 08:39:28 -0.02,-104.70 0.76,-108.08 385.55 80
2 02/19/2024 08:18:03 -0.02,-104.70 -0.26,-103.55 130.47 80
3 02/20/2024 20:39:59 0.02,-104.66 -0.94,-108.85 478.02 80
4 02/21/2024 20:23:55 0.03,-104.66 0.09,-104.32 38.39 80
5 02/24/2024 08:26:58 -0.03,-104.69 0.08,-105.05 41.91 80
6 02/25/2024 08:05:33 -0.03,-104.70 -0.95,-100.53 474.86 80
7 02/26/2024 20:27:30 0.03,-104.66 -0.24,-105.83 132.82 80
8 02/27/2024 20:11:25 0.03,-104.67 0.80,-101.30 384.08 80
9 02/29/2024 08:33:12 -0.03,-104.70 0.38,-106.57 212.08 80
10 03/01/2024 08:11:48 -0.03,-104.70 -0.65,-102.04 304.55 80
